Wind_Speed
14 14 13 15 15 16 17 18 19 19 20 20 18 16 14 14 14 14 13 12 12 11 10 9 10 12 14 16 19 21 21 21 23 24 27 25 25 23 23 26 29 34 31 32 35
15 15 16 15 16 18 20 21 21 20 20 19 17 17 16 16 17 17 16 14 14 14 12 11 9 8 9 9 10 12 14 21 26 30 32 31 29 27 25 26 27 33 33 32 32
18 17 17 17 18 19 20 21 20 20 20 20 19 19 18 17 19 18 18 17 17 16 15 14 12 12 12 11 10 8 10 15 19 25 31 33 32 30 29 28 31 29 33 31 31
23 22 21 20 20 21 21 21 23 23 22 21 21 21 21 21 21 21 21 21 20 20 19 18 18 17 17 16 14 14 13 15 16 18 21 26 31 31 31 30 33 29 31 33 34
25 25 24 25 25 24 23 24 24 26 26 25 23 23 24 25 24 24 24 25 25 25 24 23 23 22 21 20 19 17 19 17 17 17 19 22 25 29 28 33 35 32 33 33 32
26 26 26 26 27 28 28 27 27 28 28 30 30 29 28 31 30 30 30 29 29 30 29 27 26 26 24 24 24 21 22 22 20 19 19 22 24 25 28 34 33 33 35 35 34
28 28 27 27 28 28 29 30 32 32 31 32 33 35 34 36 34 34 34 34 33 34 33 31 30 29 28 28 26 26 27 25 24 23 20 22 23 22 27 30 31 32 34 35 34
29 28 27 28 28 27 27 28 30 31 33 35 36 37 38 41 41 39 39 39 39 38 38 37 36 35 33 31 30 30 30 28 28 26 26 23 22 25 26 25 28 31 33 36 38
29 28 28 28 28 27 27 29 30 31 31 33 35 38 41 42 43 44 44 44 43 42 40 39 37 37 36 35 34 33 32 31 32 30 31 26 23 24 27 26 28 29 33 35 37
25 25 26 26 26 27 28 30 31 32 35 36 37 37 38 41 44 44 45 45 46 45 44 42 40 38 38 38 35 38 35 36 34 34 34 30 27 26 28 27 30 32 32 33 36
26 28 29 29 28 28 29 29 27 27 32 32 33 35 39 39 39 42 44 46 46 46 44 43 42 39 39 42 43 41 37 37 37 39 36 35 31 29 28 28 30 33 33 33 33
28 28 27 26 24 23 24 24 24 24 30 28 28 29 32 36 37 40 42 42 44 42 43 45 42 39 44 45 43 43 42 39 39 40 39 40 36 34 33 32 31 31 32 33 33
22 22 21 21 20 19 20 21 21 22 23 24 25 25 27 31 33 36 36 37 38 40 43 42 45 44 45 45 43 43 43 41 38 41 40 41 37 36 39 36 35 32 32 32 33
17 15 16 17 19 20 20 22 23 25 26 27 26 25 25 25 29 31 32 34 37 35 36 41 43 45 44 46 45 44 44 42 41 39 36 43 32 42 41 40 39 36 34 34 34
12 14 16 19 20 20 21 22 25 27 29 28 28 26 24 25 24 25 28 27 29 30 34 36 39 42 45 44 47 44 46 44 42 40 39 45 41 24 44 42 42 41 38 37 37
13 16 19 21 23 25 25 25 27 28 29 28 27 28 26 25 25 24 25 27 27 30 28 32 43 42 45 47 45 46 45 45 44 41 45 41 43 26 35 48 42 44 43 41 40
15 20 22 24 26 28 27 24 26 28 30 30 28 29 30 30 27 26 25 26 27 29 30 31 37 38 39 41 42 44 43 41 39 41 46 29 37 33 45 50 43 44 45 45 45
19 23 24 25 25 26 26 23 25 28 31 32 32 33 34 32 32 32 28 28 28 27 27 25 34 36 38 38 38 38 35 28 25 27 25 36 38 38 48 47 46 45 45 46 46
24 25 25 25 27 27 26 24 26 30 32 32 33 35 37 35 34 34 34 32 30 28 28 31 36 39 35 36 35 37 34 37 37 35 36 26 36 41 43 44 45 45 46 45 46
22 25 26 28 29 28 27 26 29 31 33 36 35 37 37 36 34 34 35 37 35 32 32 34 36 33 34 34 36 39 37 37 41 41 38 31 34 31 46 45 45 45 45 47 48
23 26 28 30 29 27 28 29 31 31 36 38 39 41 36 35 34 33 34 37 35 37 39 38 39 42 41 41 42 38 39 40 42 43 40 36 27 34 39 37 37 38 37 40 43
25 28 31 33 32 31 30 31 31 34 39 40 41 38 34 35 32 31 30 32 31 33 35 38 42 42 45 48 43 45 44 47 46 42 43 44 40 43 43 43 43 41 42 43 44
25 27 30 32 32 32 31 32 33 37 42 44 43 37 35 31 30 27 26 25 25 25 25 24 28 29 33 36 42 47 48 42 42 47 47 50 40 43 50 51 49 47 47 48 49
26 29 28 31 32 32 32 32 34 39 44 47 41 38 35 30 28 26 25 24 23 24 25 25 25 26 29 34 35 32 35 38 40 41 42 43 47 52 52 49 47 49 49 50 52
26 29 31 32 33 32 31 33 34 40 44 46 42 37 33 29 27 26 25 25 23 23 22 21 20 23 26 29 32 33 33 34 35 37 39 40 47 51 53 51 52 52 52 51 52
27 29 30 31 31 31 30 32 35 40 45 44 38 35 31 29 26 26 25 25 26 21 23 23 22 24 26 28 27 26 26 31 33 33 34 36 37 37 35 36 38 40 41 43 45
27 28 31 31 31 30 31 32 35 40 42 41 35 33 30 27 25 23 22 23 24 24 23 22 23 26 25 28 24 22 24 23 21 23 23 21 22 19 18 16 18 19 19 20 21
Wind_Direction
310 304 300 281 275 270 266 265 267 266 263 265 260 258 260 265 266 262 259 262 263 265 267 269 268 264 262 258 253 253 254 252 244 241 246 249 248 247 243 230 210 210 232 240 236
305 305 299 293 283 277 275 274 267 261 260 259 256 257 254 257 257 259 255 254 259 262 268 274 272 272 272 275 271 262 255 247 245 243 245 249 250 251 251 246 232 227 229 233 237
295 294 291 291 288 283 277 273 267 261 259 257 256 256 252 254 252 254 255 256 255 255 259 265 267 272 274 273 275 277 252 258 249 248 248 251 250 249 247 249 250 234 223 224 240
292 287 286 284 282 282 282 276 263 262 260 261 260 254 250 253 254 255 255 253 250 250 254 260 267 270 270 273 273 273 270 261 267 255 249 250 253 248 244 243 248 247 239 233 235
292 288 284 279 278 276 275 275 273 264 261 260 259 256 254 254 254 258 260 257 253 251 256 260 266 269 269 267 265 270 269 268 261 259 251 248 249 249 243 240 241 243 245 241 236
295 292 289 285 280 276 273 271 269 267 264 260 259 257 256 256 259 260 260 259 257 258 258 260 261 263 265 266 265 265 265 267 264 259 264 259 253 253 244 243 242 240 245 245 243
301 299 296 290 287 283 278 274 269 267 266 263 260 256 257 259 258 260 261 260 257 257 258 258 261 261 262 263 267 264 264 264 265 262 261 268 260 252 251 252 247 243 242 246 244
303 301 297 292 288 285 283 280 276 273 270 268 265 262 258 258 258 257 258 259 260 259 259 260 260 261 263 264 263 262 261 263 262 264 258 258 261 257 257 253 252 249 245 244 247
304 302 299 296 292 289 284 279 278 278 276 273 270 266 264 261 260 259 259 259 260 261 260 260 259 259 260 262 261 260 260 259 261 260 262 260 256 265 260 252 253 255 249 246 243
314 314 313 308 299 293 290 286 282 278 274 273 273 270 266 264 262 262 261 260 260 259 259 258 258 256 257 258 260 256 254 257 260 258 260 261 257 256 262 257 249 250 256 250 248
318 315 314 313 310 305 303 301 298 290 280 279 276 272 269 267 265 263 261 261 259 258 259 258 257 257 254 252 254 258 255 254 255 258 259 262 259 260 260 259 255 254 255 256 252
319 317 317 318 320 320 318 315 309 302 295 293 285 279 275 271 266 263 261 260 260 258 255 256 254 252 252 253 252 254 256 256 255 256 258 260 260 259 258 259 257 256 256 255 252
328 329 333 337 340 345 348 347 341 337 330 320 310 297 281 273 270 266 264 262 261 258 257 254 254 250 252 253 253 254 255 256 254 255 257 260 260 258 258 258 257 256 257 258 257
341 353 357 354 351 347 345 341 341 337 335 330 326 317 304 287 274 269 264 261 257 258 256 253 250 253 252 252 253 255 253 254 254 254 257 255 258 260 257 259 261 259 256 255 256
354 351 353 348 345 344 344 341 339 337 332 332 325 319 314 303 293 279 271 262 260 255 252 256 250 251 250 252 252 253 257 256 256 254 251 258 254 247 257 253 256 259 258 257 257
341 337 337 336 333 329 325 326 332 332 332 329 325 318 309 303 297 288 276 268 261 261 255 248 251 248 249 252 254 254 256 257 257 256 255 255 258 250 256 254 253 253 257 256 255
327 329 328 327 326 326 328 323 324 328 326 323 318 317 310 303 295 287 280 272 259 254 259 258 255 256 255 254 253 255 256 260 261 258 258 252 250 237 247 258 254 255 256 257 257
326 325 322 324 326 329 328 323 325 325 322 317 315 313 310 304 294 286 276 268 263 254 245 246 260 255 252 255 254 255 251 246 252 253 261 255 248 247 252 256 257 253 252 255 257
328 328 328 328 328 324 323 319 320 321 319 314 312 311 308 301 292 284 278 273 265 258 249 248 248 259 259 255 250 252 245 242 242 231 226 243 258 255 255 252 255 254 254 253 254
327 330 331 328 326 324 322 318 316 315 314 309 305 308 307 303 290 282 275 271 268 263 258 258 256 260 260 258 255 256 259 255 252 246 243 244 239 257 263 257 257 258 256 255 256
322 328 331 330 327 325 323 318 316 315 316 312 308 309 310 300 286 278 271 270 263 259 258 258 256 260 261 261 257 260 263 263 261 262 262 256 247 256 259 260 255 253 254 252 253
319 325 328 328 325 322 320 318 316 317 318 315 314 316 308 297 291 282 274 272 268 260 253 252 255 256 262 262 264 264 262 261 262 263 267 262 263 266 266 267 266 262 260 260 256
312 318 323 324 324 321 318 315 314 317 320 319 319 319 308 300 294 285 279 275 270 266 261 258 256 257 262 262 260 257 256 257 262 260 259 262 264 266 270 268 268 269 268 268 267
309 315 320 323 322 320 318 315 314 318 320 321 322 319 309 302 296 288 282 274 271 267 267 267 266 261 257 249 262 263 258 259 258 257 260 258 256 257 262 265 269 269 268 267 267
308 316 320 322 321 321 319 319 318 321 321 323 324 319 311 303 296 290 283 279 272 275 271 264 262 261 260 258 259 261 259 257 255 253 252 248 250 254 259 263 262 264 265 265 265
305 314 318 320 319 318 318 317 319 322 323 326 325 320 313 304 298 292 287 281 271 273 271 272 273 271 269 263 261 263 260 253 253 253 253 254 254 258 261 261 262 262 263 265 266
304 311 317 319 318 317 315 316 319 322 325 328 327 320 316 307 299 293 288 276 271 269 273 275 277 275 272 273 269 262 249 250 250 244 238 240 244 248 252 252 260 265 269 271 275
Height
5884 5882 5881 5880 5879 5879 5878 5878 5878 5878 5878 5878 5878 5878 5878 5878 5879 5879 5880 5881 5882 5882 5883 5884 5884 5884 5885 5887 5888 5888 5891 5893 5894 5894 5892 5893 5897 5901 5903 5907 5910 5912 5912 5913 5915
5880 5879 5877 5876 5876 5875 5875 5874 5874 5874 5874 5874 5874 5874 5875 5875 5875 5876 5878 5878 5878 5879 5880 5881 5881 5882 5882 5883 5884 5885 5886 5886 5886 5887 5887 5888 5891 5896 5900 5901 5906 5907 5908 5909 5911
5877 5875 5874 5873 5872 5871 5870 5870 5869 5869 5870 5869 5869 5870 5870 5871 5871 5872 5873 5874 5875 5876 5876 5877 5878 5879 5880 5880 5881 5882 5882 5881 5881 5881 5881 5882 5885 5889 5894 5897 5897 5902 5904 5906 5908
5872 5871 5869 5869 5868 5867 5866 5865 5865 5865 5865 5865 5865 5865 5865 5866 5868 5867 5868 5870 5871 5872 5872 5873 5874 5875 5876 5877 5877 5878 5877 5877 5876 5877 5877 5877 5877 5882 5886 5892 5891 5894 5898 5901 5903
5866 5865 5864 5863 5862 5861 5861 5860 5860 5860 5860 5860 5860 5860 5860 5861 5862 5862 5863 5864 5865 5866 5868 5868 5869 5870 5870 5872 5873 5873 5873 5873 5872 5871 5871 5871 5872 5873 5879 5881 5884 5888 5891 5894 5897
5860 5859 5858 5857 5856 5855 5854 5854 5854 5853 5853 5854 5854 5855 5855 5854 5856 5856 5857 5858 5859 5860 5862 5863 5863 5865 5865 5866 5867 5868 5868 5868 5867 5866 5866 5866 5866 5868 5871 5872 5878 5884 5885 5888 5892
5854 5853 5851 5850 5848 5847 5847 5845 5846 5846 5846 5847 5847 5847 5848 5847 5848 5848 5849 5850 5852 5852 5854 5856 5857 5858 5859 5859 5861 5862 5861 5862 5862 5861 5862 5862 5863 5864 5864 5866 5871 5876 5879 5881 5885
5847 5846 5844 5842 5841 5840 5839 5838 5837 5838 5838 5838 5839 5838 5839 5838 5839 5840 5841 5842 5843 5845 5847 5848 5850 5851 5852 5853 5854 5855 5855 5856 5856 5857 5856 5858 5859 5858 5858 5861 5864 5869 5872 5875 5877
5840 5839 5837 5835 5834 5833 5832 5831 5830 5830 5829 5828 5828 5829 5829 5829 5830 5831 5831 5833 5834 5836 5839 5839 5841 5843 5844 5845 5846 5848 5849 5849 5849 5851 5850 5853 5854 5853 5854 5856 5857 5860 5863 5867 5870
5835 5833 5831 5829 5827 5825 5824 5823 5822 5821 5819 5818 5819 5820 5818 5819 5819 5821 5821 5822 5824 5826 5828 5830 5832 5834 5835 5836 5838 5837 5841 5841 5842 5843 5844 5846 5848 5848 5848 5850 5850 5851 5854 5859 5861
5831 5828 5825 5823 5821 5819 5817 5815 5815 5813 5809 5810 5810 5809 5808 5808 5810 5809 5809 5811 5813 5815 5818 5820 5822 5824 5825 5826 5827 5829 5832 5834 5833 5833 5837 5838 5841 5842 5842 5843 5844 5844 5847 5849 5853
5827 5823 5820 5817 5814 5812 5810 5808 5806 5805 5801 5802 5802 5800 5799 5798 5798 5797 5799 5801 5803 5805 5805 5808 5811 5812 5812 5814 5818 5819 5822 5825 5825 5826 5829 5828 5832 5835 5835 5835 5837 5837 5839 5842 5844
5821 5818 5816 5813 5811 5808 5806 5804 5801 5799 5798 5795 5792 5791 5791 5790 5788 5789 5790 5791 5792 5793 5795 5797 5798 5800 5802 5804 5808 5810 5812 5814 5817 5817 5820 5821 5823 5825 5825 5827 5829 5830 5830 5833 5836
5818 5816 5813 5811 5809 5806 5803 5800 5798 5795 5794 5792 5788 5785 5783 5781 5780 5780 5780 5782 5781 5784 5785 5785 5786 5789 5792 5793 5796 5798 5802 5804 5806 5810 5812 5812 5818 5814 5815 5817 5818 5821 5823 5824 5826
5816 5814 5811 5808 5806 5803 5800 5797 5794 5791 5789 5787 5783 5781 5778 5776 5774 5773 5772 5773 5773 5774 5775 5777 5777 5776 5779 5783 5784 5789 5789 5794 5796 5799 5801 5802 5807 5812 5803 5807 5809 5810 5812 5814 5815
5813 5811 5808 5805 5802 5799 5796 5793 5790 5788 5783 5781 5778 5775 5773 5771 5768 5767 5766 5765 5766 5765 5767 5767 5762 5767 5768 5770 5775 5777 5780 5782 5785 5788 5789 5795 5794 5802 5795 5794 5799 5800 5802 5804 5806
5810 5807 5805 5802 5798 5794 5791 5788 5786 5783 5780 5776 5772 5769 5766 5765 5763 5761 5759 5757 5757 5758 5758 5757 5755 5757 5760 5762 5764 5766 5770 5773 5775 5776 5779 5784 5785 5789 5785 5783 5789 5790 5792 5793 5796
5806 5804 5800 5797 5794 5790 5786 5784 5781 5777 5773 5770 5766 5762 5758 5756 5754 5753 5750 5748 5748 5749 5750 5752 5746 5749 5751 5754 5756 5757 5761 5766 5769 5773 5776 5768 5770 5770 5772 5774 5778 5781 5782 5783 5785
5801 5799 5795 5791 5788 5785 5782 5779 5775 5771 5767 5763 5758 5755 5751 5748 5745 5742 5740 5739 5738 5739 5740 5740 5740 5739 5743 5745 5748 5747 5751 5751 5754 5757 5760 5764 5757 5758 5760 5764 5765 5769 5771 5773 5775
5798 5794 5791 5787 5783 5779 5776 5772 5768 5763 5759 5755 5751 5747 5741 5738 5735 5732 5729 5726 5726 5728 5729 5729 5731 5732 5734 5736 5738 5739 5742 5744 5743 5745 5747 5752 5751 5751 5747 5752 5754 5755 5758 5760 5761
5792 5789 5785 5781 5778 5774 5769 5765 5761 5756 5752 5747 5742 5736 5732 5728 5723 5719 5718 5716 5717 5718 5719 5721 5723 5723 5724 5725 5728 5731 5732 5734 5734 5735 5737 5739 5737 5737 5736 5739 5740 5742 5745 5747 5749
5787 5783 5779 5775 5772 5767 5763 5758 5754 5749 5744 5738 5732 5726 5721 5716 5713 5710 5708 5706 5707 5707 5708 5709 5711 5714 5714 5711 5718 5719 5721 5722 5723 5727 5725 5727 5728 5725 5725 5727 5728 5730 5732 5734 5736
5781 5778 5774 5769 5765 5761 5756 5752 5746 5741 5735 5728 5722 5716 5711 5707 5703 5701 5699 5699 5698 5698 5699 5700 5701 5703 5704 5705 5702 5704 5706 5708 5710 5713 5717 5717 5720 5712 5713 5714 5715 5717 5719 5719 5719
5775 5771 5767 5762 5758 5754 5749 5744 5739 5734 5726 5719 5713 5707 5701 5698 5695 5693 5691 5691 5691 5691 5691 5692 5692 5693 5695 5692 5691 5693 5694 5696 5698 5700 5704 5705 5705 5701 5700 5703 5704 5704 5704 5706 5706
5766 5763 5758 5754 5750 5746 5741 5736 5731 5725 5719 5711 5704 5698 5693 5689 5686 5684 5684 5683 5683 5682 5682 5683 5684 5684 5683 5683 5682 5683 5684 5685 5686 5688 5689 5691 5688 5688 5689 5691 5691 5691 5691 5691 5691
5759 5756 5752 5747 5742 5738 5734 5729 5723 5717 5710 5703 5697 5690 5685 5681 5679 5677 5676 5675 5674 5675 5674 5675 5674 5674 5674 5673 5674 5674 5674 5674 5675 5676 5677 5677 5677 5677 5679 5679 5679 5679 5678 5678 5677
5750 5747 5744 5740 5735 5730 5726 5721 5716 5709 5703 5695 5689 5683 5678 5674 5671 5669 5668 5667 5667 5668 5668 5667 5666 5665 5666 5662 5664 5666 5665 5665 5667 5667 5669 5671 5671 5673 5672 5672 5672 5671 5671 5669 5668